Showing default

QUETZSAT 1, 37826

Orbit data source: Space-Track

QUETZSAT 1, 37826 is a payload satellite owned by SES Sat. Leasing (MX) in GEO that was launched on Thu, 29 Sep 2011 UTC via a PROTON-M/BRIZ-M launch vehicle from the Tyuratam Missile And Space Complex (TTMTR). Payload-class satellites include a variety of spacecraft equipped with specific instruments for various scientific and technological missions. These include communications satellites like Starlink; space stations such as the ISS; scientific satellites like the Hubble; Earth observation satellites from companies like Planet Labs, Umbra, and HawkEye 360; GPS; miniature CubeSats for education and research; and military/defense satellites.

Loading next visibility...
Identifier
37826, 2011-054A
Orbit
GEO
Last TLE update
5 hours ago
Origin
Manufacturer
SS/Loral
Mission
Operational Commercial Communications
Bus & Motor
SSL-1300, R-4D-15-300?
Mass
5,514 kg wet, 2,472 kg dry
Launch date (UTC)
2011-09-29 (14 years ago)
Launch vehicle
PROTON-M/BRIZ-M
Launch site
Tyuratam Missile And Space Complex (TTMTR)
Object type
Payload
Rocket body
Debris
Shape & HBR
Box + 2 Pan, 26.7 m
Radar Cross Section
28.987 m², Large (>1 m²)

Expand to show TLE details & history

TLE from 5 hours ago
0 QUETZSAT 1
1 37826U 11054A   25129.50947603 -.00000233  00000-0  00000+0 0  9998
2 37826   0.0226  43.3776 0003102  20.5330 270.0600  1.00268692 50056
Epoch: 2025-05-09T12:13Z
Definitive object data (Epoch: 2025-05-09T12:13:38.728Z)
Latitude
0.00431°
Longitude
-77.04607°
Altitude
35,786.9 km
Speed
3.075 km/s
True Right ascension
22h 15m 43s
True Declination
0° 00' 15"
Sunlit
Object was in daylight at TLE epoch
Visualization TLE readout
Latitude
0.00434°
Longitude
-9.21284°
Altitude
35,774.79 km
Speed
3.076 km/s
Apparent Right ascension
03h 01m 00s
Apparent Declination
-6° 07' 32"
Sunlit
Object is in daylight
Visualization observer readout
Local Sidereal Time
00:54:41
Azimuth
140.217° SSE
Elevation
35.534°
Doppler factor
1
Orbital elements
Apogee altitude
35,801.613 km
Perigee altitude
35,775.452 km
Semi-major axis
42,166.669 km
Eccentricity
0.0003102
Inclination
0.0226°
RAAN
43.3776°
Arg. of periapsis
20.533°
True anomaly
270.02445°
Mean anomaly
270.06°
Eccentric anomaly
270.04223°
Mean motion
0.25066 °/min
BSTAR
Unknown
Orbital period
1436.19 mins
Loading historical data...
37826 neighbors
Loading maneuver chart data...
Loading SW <> Apogee altitude chart data...
Loading historical data...
Loading historical data...
Loading historical data...
Loading historical data...
Loading historical data...
Loading historical data...
Loading historical data...
Other satellites on launch #54 in the year 2011 (2011-09-29 UTC)

QUETZSAT 1 Visibility forecast

Observer location: undefined°, undefined°

Span
Click to sort rows by Start time (UTC) header in descending order
Start Az.
Max El. time (UTC)
Max El. Az.
Max El.
End time (UTC)
End Az.
1440 mins2025-05-09 16:44:09.535Z140.229° SSE2025-05-10 13:20:09.535Z140.267° SSE30.171°2025-05-10 16:44:09.535Z140.244° SSE
|